Dewpoint
60 59 60 60 59 58 57 55 55 55 55 55 55 55 55 54 52 52 52 50 51 51 50 47 47 49 48 49 47 48 47 46 47 46 46 48 48 47 47 48 49 49 49 49 49 48 49 49 50 50 50 48 48 48 45 47 48 48 48 46 46 44 42 42 40 41 42 46 43 37 38 39 36 33 31 32 35 36 40 43 45 42 39 40 39
60 60 59 60 59 59 57 55 54 53 53 53 53 54 55 54 53 52 50 51 51 50 48 46 47 46 46 47 48 48 48 47 48 48 48 47 46 49 48 47 48 49 49 48 47 49 49 47 47 48 48 45 46 43 43 42 41 44 46 46 46 47 47 45 43 42 40 43 40 40 41 42 36 35 35 38 39 42 37 38 43 38 38 41 36
60 59 59 59 59 59 56 54 54 53 52 52 52 53 54 54 53 53 52 51 52 50 47 47 45 45 46 46 46 46 46 46 50 48 46 46 47 49 50 48 49 49 47 47 48 47 47 47 47 49 50 49 50 47 47 45 44 44 46 46 46 47 47 46 46 44 41 41 45 38 41 44 42 36 40 42 43 42 41 38 37 40 40 42 39
59 59 60 59 59 58 56 54 54 54 52 52 52 53 53 52 53 53 52 51 49 51 51 49 47 47 45 44 44 45 46 50 48 46 49 50 50 49 48 49 50 47 47 46 46 46 46 47 49 50 51 50 50 51 48 46 48 48 46 47 46 47 48 48 46 46 44 41 43 37 39 41 42 43 38 39 43 41 41 39 41 42 41 40 39
58 59 59 59 58 57 57 55 55 54 54 54 53 54 53 52 52 51 52 50 49 50 51 49 49 45 45 43 45 46 47 48 45 46 50 50 48 47 47 48 48 47 47 47 51 48 49 47 48 49 51 47 49 50 50 49 48 48 48 47 48 50 49 47 48 48 45 42 43 43 40 43 43 41 39 36 38 38 41 41 41 43 45 46 46
58 58 58 58 58 56 56 56 55 55 55 55 55 55 55 54 53 52 52 50 50 51 49 49 48 48 45 43 44 46 46 48 46 47 49 50 48 47 48 47 49 49 47 48 49 48 48 47 50 51 51 50 50 50 50 50 51 50 50 48 47 48 48 49 49 48 47 45 47 43 42 42 43 43 43 38 38 41 43 44 44 45 45 45 46
57 56 57 57 57 57 56 56 56 56 55 55 57 56 55 55 55 52 51 50 51 50 46 47 48 48 48 46 44 46 47 48 46 47 48 50 49 48 48 50 52 50 48 49 49 50 51 50 51 51 52 52 52 50 51 51 51 50 51 49 50 50 49 49 46 48 46 46 46 45 44 45 43 42 42 42 42 43 43 44 43 45 46 44 43
56 57 57 56 56 57 56 56 56 56 56 56 56 56 56 55 54 54 51 50 49 51 48 48 48 48 46 48 47 46 46 47 48 47 47 50 49 52 50 51 51 49 51 52 54 55 55 54 53 52 52 52 52 52 53 52 52 51 52 51 50 49 48 48 47 46 46 46 45 44 45 43 45 46 44 45 44 43 43 44 40 41 43 44 43
56 56 56 56 56 57 57 57 56 56 56 55 55 56 55 54 55 55 54 51 50 49 51 51 48 47 47 47 49 48 46 48 50 48 50 51 51 52 51 51 51 51 55 54 54 55 55 55 53 52 52 53 51 50 51 52 51 50 50 51 50 48 48 47 45 44 45 44 44 45 45 44 44 44 42 42 42 42 43 44 42 43 42 42 42
56 56 56 57 58 58 58 57 57 56 56 56 56 56 56 55 55 54 54 54 51 49 49 50 50 47 48 48 48 50 49 49 51 48 49 50 51 51 52 51 53 53 54 54 54 54 55 54 54 55 53 51 48 44 44 47 50 51 50 50 50 50 49 47 46 45 46 44 45 44 43 42 43 44 43 44 44 42 41 41 39 41 41 41 42
56 56 56 56 57 57 57 57 57 56 56 56 57 57 56 57 56 56 55 54 53 53 53 52 50 49 47 48 48 50 50 50 45 43 44 46 50 52 52 51 53 53 54 54 53 54 53 54 54 54 53 52 48 43 42 42 41 41 43 47 50 48 47 47 47 46 46 45 45 43 42 42 43 44 43 43 43 42 40 40 40 40 39 37 37
55 55 55 56 56 56 57 57 57 56 56 56 56 56 56 56 55 55 55 56 56 55 53 53 53 53 51 49 51 51 50 48 41 42 42 44 47 52 54 54 54 54 54 54 54 54 54 54 53 54 53 53 53 47 43 40 39 39 38 38 38 39 42 45 45 47 45 45 44 43 43 43 43 43 43 41 41 41 41 41 40 39 38 37 37
47 50 53 55 55 55 56 56 57 56 56 55 56 55 54 54 55 55 54 54 55 55 55 54 54 54 53 52 51 51 50 44 43 41 41 43 45 51 54 54 53 53 54 54 54 54 54 53 54 55 56 56 57 52 46 43 40 39 39 38 37 35 34 36 42 46 46 44 45 44 43 43 43 42 44 42 42 41 40 40 39 38 38 37 37
35 36 37 38 39 43 46 50 50 54 54 54 54 54 54 53 54 54 53 54 54 54 54 54 54 54 53 52 51 51 50 45 43 42 42 41 44 49 54 54 53 53 53 53 53 55 55 54 53 52 52 53 54 53 49 46 43 40 40 40 38 37 37 36 37 37 41 43 44 44 45 44 43 42 42 42 41 39 38 37 37 36 35 34 37
36 36 36 36 36 37 39 41 42 44 50 53 53 52 53 52 53 53 53 53 53 53 54 53 53 53 53 52 51 51 52 45 42 43 43 43 44 48 54 54 53 53 53 52 51 54 54 54 53 52 52 52 53 53 51 47 44 44 42 42 40 43 39 38 40 45 47 46 47 46 44 43 41 39 39 40 38 38 38 35 34 33 35 36 34
36 37 36 36 36 35 35 36 38 41 43 44 46 46 48 51 52 52 52 52 52 53 53 53 53 52 52 52 51 51 52 46 42 41 42 42 43 48 50 52 52 52 52 52 51 53 54 54 53 52 52 52 46 44 48 48 46 45 46 44 39 35 36 38 36 38 44 44 41 38 37 38 37 35 38 37 37 37 38 36 37 36 34 33 32
36 37 37 36 38 36 34 35 36 39 40 42 43 44 44 44 47 51 51 51 51 52 53 53 53 53 51 52 51 51 51 49 44 43 41 41 44 48 48 49 50 51 51 52 53 54 54 54 53 52 52 48 41 40 44 45 48 47 46 42 40 36 34 36 36 35 35 36 36 35 35 35 35 35 36 37 36 36 35 34 33 33 33 31 34
36 37 37 36 36 35 35 36 38 39 38 39 40 41 43 43 43 45 44 47 51 53 52 52 52 52 52 53 53 52 52 50 46 43 43 40 45 49 49 49 48 48 51 52 52 50 48 48 52 51 50 47 36 36 40 46 48 47 45 42 40 37 37 38 37 36 36 35 35 34 34 35 35 35 35 35 36 38 33 31 33 34 33 33 32
36 36 37 36 36 37 37 38 38 38 37 38 39 38 39 40 40 41 43 44 44 47 52 53 52 52 53 53 53 53 52 51 47 44 43 42 44 48 49 49 48 47 49 51 51 49 46 45 45 49 49 44 38 40 37 42 51 48 46 43 42 39 38 38 36 36 36 35 34 35 33 35 36 35 38 36 36 39 37 37 36 34 33 34 34
36 36 37 37 37 37 37 38 38 38 38 37 38 38 38 37 37 39 40 42 44 45 44 46 51 53 52 52 53 54 53 53 50 45 44 42 42 48 50 50 49 48 49 52 51 47 43 42 42 39 39 36 36 37 39 41 48 47 46 44 42 41 41 40 39 39 39 39 39 39 38 37 35 36 36 37 37 38 36 38 38 38 35 33 33
38 38 37 37 37 37 37 38 38 38 38 38 38 38 38 38 39 39 40 42 43 43 44 45 45 45 49 52 53 53 54 53 52 45 44 43 42 44 50 51 50 50 50 49 50 46 42 40 39 37 36 37 37 37 38 39 43 47 46 45 44 43 41 41 42 41 41 41 40 40 40 39 38 37 38 39 37 35 36 36 37 37 34 32 31
38 38 37 37 38 38 38 39 39 40 38 37 37 36 37 37 37 37 37 38 38 38 38 38 39 40 41 45 51 53 53 51 53 48 44 43 42 41 48 51 51 51 50 48 47 44 40 39 38 37 35 35 35 34 34 34 35 37 35 35 37 38 40 40 40 40 39 39 38 37 36 35 36 36 36 38 39 39 37 36 37 37 34 34 33
37 37 38 36 38 39 38 38 38 40 39 38 37 37 37 36 36 37 36 36 36 37 38 40 41 42 42 44 47 51 53 52 48 51 46 44 43 42 43 48 45 51 50 48 46 42 41 41 40 37 35 35 34 34 34 33 34 33 32 32 33 35 37 39 40 40 38 37 36 34 33 34 34 34 35 35 36 36 35 35 34 34 35 36 34
36 36 36 35 36 36 36 36 36 37 37 37 37 36 36 37 37 36 35 35 34 33 34 36 35 35 36 38 42 47 51 53 49 46 48 45 43 42 41 43 44 48 49 47 45 43 42 40 40 36 36 35 34 34 33 33 33 32 32 33 34 36 38 37 36 35 35 33 33 33 34 33 33 33 33 34 34 35 35 34 34 34 33 34 33
36 36 35 35 35 35 35 35 35 35 35 36 35 35 34 34 34 34 34 34 33 33 32 33 33 34 35 37 38 41 47 52 52 48 45 45 43 41 40 42 42 42 46 46 44 43 40 37 35 35 35 35 34 33 33 32 32 32 32 34 38 37 38 38 37 35 34 33 34 33 32 33 33 33 34 34 34 34 34 33 33 33 33 33 33
36 35 35 35 35 35 35 35 35 35 36 35 35 35 34 34 34 34 34 34 34 34 33 33 32 32 33 36 39 41 43 48 51 51 47 45 42 39 40 41 41 41 44 45 41 39 36 35 35 35 35 34 33 31 29 31 32 32 34 37 38 37 35 34 33 32 32 32 32 32 32 32 32 33 34 32 32 31 32 31 31 31 32 32 31
36 36 35 35 35 35 35 35 35 35 35 35 36 36 35 35 35 34 34 34 34 35 35 33 32 32 33 36 41 43 45 46 44 43 43 43 44 42 42 42 40 40 43 42 39 37 36 36 35 34 33 33 32 32 33 32 32 32 33 35 36 33 32 31 30 31 33 32 31 32 31 32 32 32 31 31 31 31 32 31 30 30 31 30 29
36 35 35 35 35 35 35 33 35 35 35 35 34 34 35 35 35 34 33 33 33 32 32 32 32 32 32 36 40 41 44 45 44 43 44 44 43 43 44 45 44 44 44 42 40 38 36 35 33 34 34 33 32 31 29 30 29 30 33 34 30 31 33 34 34 33 33 32 31 30 30 32 31 30 31 31 30 30 30 31 30 29 29 29 28
36 35 35 35 35 35 36 35 35 35 35 34 35 35 35 35 35 35 34 34 34 33 33 32 33 33 34 37 38 39 40 43 45 41 41 41 41 44 44 45 44 44 41 39 39 37 36 35 34 33 31 30 29 28 29 30 30 32 36 33 29 29 29 30 31 29 30 30 29 30 29 29 28 29 30 29 30 30 28 29 28 28 28 28 29
36 36 36 36 35 36 36 35 35 35 35 35 35 35 33 35 35 34 34 35 34 34 33 33 34 35 36 37 38 38 38 42 39 38 39 39 39 40 41 41 39 40 35 34 37 35 32 32 32 32 30 29 28 29 30 31 32 32 32 32 30 29 30 30 28 27 29 29 29 29 27 27 27 28 28 28 27 27 28 30 27 28 28 29 30
36 36 36 36 36 36 35 35 34 35 35 35 35 34 34 34 34 34 34 35 34 34 34 34 34 35 37 37 39 36 36 37 36 40 39 39 38 38 37 37 36 35 34 34 33 33 32 32 32 32 30 29 29 30 31 32 31 29 29 30 29 29 29 27 27 29 29 29 28 28 28 28 28 28 28 27 27 27 27 28 28 28 29 30 30
35 36 36 36 36 35 35 35 35 35 35 35 35 35 35 34 35 34 34 34 34 34 34 34 34 34 34 36 38 38 36 35 36 39 38 38 38 37 37 36 35 35 35 34 33 33 33 33 32 32 31 30 30 31 32 32 30 29 29 28 28 28 28 27 28 29 29 29 27 27 28 28 29 27 28 27 27 27 27 27 27 28 29 30 31
36 36 36 36 36 36 35 35 35 36 36 35 35 35 34 34 34 34 34 34 34 34 34 34 34 34 34 36 36 37 38 38 36 38 38 37 37 35 35 35 35 34 34 34 34 33 33 34 34 34 33 32 31 33 32 31 30 29 29 28 28 28 27 27 29 29 29 28 28 27 28 28 27 27 27 27 26 24 26 27 28 30 30 30 31
36 36 36 36 36 37 37 37 37 37 37 36 36 35 34 35 34 34 34 33 33 33 34 34 34 34 36 36 36 36 36 37 37 37 37 37 36 35 34 34 35 35 35 35 32 33 34 35 36 37 37 33 32 32 31 31 30 29 30 28 27 27 27 29 28 28 28 27 27 27 27 26 26 25 25 25 25 25 26 28 29 30 30 30 30
36 35 34 34 36 37 37 37 37 37 37 37 36 35 35 35 34 34 33 33 32 32 32 33 34 36 35 34 34 34 35 35 35 36 37 36 35 34 35 35 34 35 36 37 37 35 33 34 35 36 33 32 32 31 31 31 30 29 29 29 28 28 29 30 30 28 28 28 27 26 26 26 26 26 25 24 24 25 26 27 28 28 28 29 29
36 36 36 35 36 37 37 38 38 37 37 37 37 36 36 35 34 34 33 33 33 33 33 33 33 35 35 35 34 34 34 34 35 36 36 35 35 35 34 34 34 34 35 37 38 37 37 37 37 34 35 34 32 31 30 29 29 29 27 27 27 29 29 29 29 28 26 27 26 26 26 24 25 24 24 27 27 27 26 26 27 27 27 28 30
36 36 36 36 36 36 36 37 36 36 34 33 35 36 35 35 34 34 33 33 33 33 32 32 33 34 35 34 34 34 34 34 34 35 35 35 35 35 35 35 34 35 34 36 37 37 37 37 35 34 36 35 33 29 29 29 28 26 27 26 28 28 28 28 28 27 25 25 24 25 27 27 27 27 28 27 25 25 26 26 26 27 29 31 31
35 36 37 37 36 36 36 36 36 34 34 34 35 35 34 34 34 33 33 33 33 33 33 34 35 36 36 36 36 34 33 34 34 34 33 33 33 34 34 35 36 35 35 35 36 38 37 36 36 36 33 33 31 30 29 28 28 27 28 28 28 28 30 29 28 26 25 27 27 27 27 26 26 26 27 26 25 24 25 26 27 29 30 31 31
36 35 34 34 34 35 35 35 35 35 34 34 34 33 32 33 33 33 33 33 33 34 34 36 37 37 36 36 35 36 35 33 32 32 32 32 32 33 34 36 36 36 36 37 37 38 38 37 34 33 32 31 30 29 28 27 27 26 27 26 27 28 28 27 27 25 27 27 26 26 26 25 24 23 24 24 24 25 27 29 30 30 30 30 31
34 35 35 34 34 33 33 33 35 35 34 34 34 32 32 33 33 33 34 34 34 34 34 35 34 35 36 36 35 36 34 33 32 32 32 32 32 34 36 34 35 35 36 37 37 38 37 36 36 35 33 32 30 29 28 28 28 27 27 25 25 25 26 27 28 28 27 27 26 26 26 25 23 24 23 24 24 26 28 29 30 30 30 30 31
33 34 34 35 34 34 34 34 34 35 33 33 32 33 33 34 34 34 34 34 34 34 34 34 34 34 33 34 35 36 35 34 33 32 32 32 32 33 33 33 33 34 34 35 36 36 36 35 33 33 32 32 30 29 28 28 28 27 27 28 29 29 29 28 28 28 27 27 27 26 24 24 25 24 25 25 30 28 27 29 30 31 31 31 30
33 34 35 35 33 33 34 34 34 34 34 33 32 32 33 34 34 34 34 33 33 33 32 33 33 34 33 34 35 34 35 34 33 33 33 33 33 33 33 33 34 35 35 35 35 34 34 33 33 32 31 31 30 29 29 28 27 27 28 28 28 28 28 28 28 27 27 26 25 25 23 25 25 27 26 30 25 25 27 30 30 31 31 30 30
33 34 34 34 32 33 34 34 34 34 34 33 32 33 33 34 34 34 34 32 31 30 30 30 32 33 33 33 33 33 34 33 32 33 33 33 33 33 34 34 34 35 36 35 35 33 31 30 30 30 30 29 28 27 27 27 27 27 27 27 28 28 28 28 28 28 26 26 26 25 24 25 26 23 24 25 25 28 30 30 31 31 31 31 31
33 34 34 33 33 33 34 34 33 33 33 33 33 33 33 33 34 36 33 31 30 30 30 30 31 32 33 33 33 34 34 33 32 32 33 33 34 33 33 33 34 33 33 32 31 30 29 28 28 28 29 28 28 29 28 28 28 28 28 28 28 28 27 27 25 24 24 25 25 26 25 24 25 23 26 26 26 30 30 31 31 29 29 30 31
33 32 32 31 32 33 33 33 33 33 33 33 34 34 33 35 34 33 31 30 30 30 31 32 33 33 33 33 33 33 33 32 32 32 32 33 34 33 33 33 32 32 32 31 31 30 29 28 28 28 28 28 29 29 29 29 29 29 28 28 27 27 25 24 23 23 24 24 24 24 25 24 23 23 24 27 30 30 31 30 29 30 30 30 30
31 31 31 31 32 32 33 33 32 33 33 33 33 33 33 34 35 33 33 32 32 31 32 33 33 33 33 33 33 33 33 33 33 33 32 32 32 32 32 32 32 32 31 30 30 30 29 29 28 28 29 29 29 29 29 28 28 27 27 26 25 24 22 23 24 25 25 23 23 23 24 24 24 25 28 27 30 31 31 31 30 30 30 30 30
33 30 31 32 33 32 32 32 32 32 32 32 32 33 33 33 33 32 32 32 32 32 32 33 33 33 33 33 33 33 33 33 33 33 33 33 33 33 32 32 31 31 30 30 30 29 30 29 29 30 30 29 29 29 28 27 26 25 25 25 25 25 23 22 24 23 23 23 23 23 23 23 24 25 27 28 30 30 31 31 30 30 30 30 30
31 30 30 31 32 32 32 32 32 31 31 31 31 32 32 32 32 32 32 32 33 33 33 33 33 33 33 33 33 33 33 33 33 33 33 33 33 32 32 32 31 30 30 29 29 29 29 29 30 30 30 30 29 29 28 27 25 25 25 25 25 25 26 25 23 23 21 21 23 23 23 23 23 24 26 27 28 30 30 30 30 30 30 30 31
32 30 30 31 32 32 32 32 32 32 32 31 31 32 32 32 32 32 32 32 33 33 33 33 33 33 33 33 33 33 33 33 33 33 33 33 33 34 32 32 31 31 30 30 30 30 30 30 30 30 29 29 29 28 28 26 25 25 25 25 25 25 26 26 26 26 26 26 24 24 23 23 23 24 26 26 28 29 29 30 30 30 30 29 29
33 31 31 30 31 31 32 32 33 33 32 32 32 32 32 32 32 32 32 33 33 33 33 33 33 33 33 33 33 33 33 33 33 33 33 33 33 33 32 32 32 31 30 30 30 30 30 29 29 29 28 28 28 27 26 25 25 25 24 24 24 25 25 26 26 26 26 26 25 24 23 23 23 23 25 26 27 26 27 29 30 31 30 28 28
32 32 32 31 32 30 31 31 32 33 33 32 32 32 32 33 33 33 33 33 33 33 33 33 33 33 34 34 33 33 33 33 33 33 33 32 32 32 32 31 31 31 31 30 30 30 29 28 28 28 27 27 26 26 24 23 22 22 23 24 24 24 25 25 26 26 26 27 27 26 25 25 24 25 26 26 27 26 28 29 30 30 30 28 28